Tracking 19800 objects as of 23-Jul-2019
HD Live streaming from Space Station
objects crossing your sky now

SLOSHSAT

Track SLOSHSAT now!
SLOSHSAT is classified as:


NORAD ID: 28544
Int'l Code: 2005-005C
Perigee: 293.8 km
Apogee: 32,703.7 km
Inclination: 6.9 °
Period: 573.7 minutes
Semi major axis: 22869 km
RCS: 0.5011 m2 (medium)
Launch date: February 12, 2005
Source: European Space Agency (ESA)
Launch site: FRENCH GUIANA (FRGUI)
aabbcc
Your satellite tracking list
Your tracking list is empty




NASA's NSSDC Master Catalog

Two Line Element Set (TLE):
1 28544U 05005C   19203.45511506  .00000318  00000-0  22582-3 0  9999
2 28544   6.8781 127.8403 7085744  48.5627 353.3527  2.51020900125967
Source of the keplerian elements: AFSPC